PAL117 RPLL-VHHH

Flight info

Callsign PAL117
Flight time N/A
Altitude 36000
Route CAB2R CAB A461 NOMAN V533 BETTY
Aircraft A21N/M-SDE3FGHIRWY/LB1

Departure

Time 2026-05-06 07:48
Airport Ninoy Aquino International Airport (RPLL)

Arrival

Time N/A
Airport Hong Kong International Airport (VHHH)
Time Latitude Longitude Altitude Speed Heading
2026-05-06 07:23 14.50474 121.00657 81 ft 0 kts
2026-05-06 07:36 14.50438 121.00656 81 ft 2 kts
2026-05-06 07:37 14.50423 121.00655 81 ft 2 kts
2026-05-06 07:37 14.50409 121.00655 81 ft 2 kts
2026-05-06 07:37 14.50394 121.00652 81 ft 2 kts 24°
2026-05-06 07:37 14.50381 121.00645 81 ft 2 kts 41°
2026-05-06 07:38 14.50372 121.00633 81 ft 1 kts 59°
2026-05-06 07:38 14.50365 121.00621 81 ft 2 kts 61°
2026-05-06 07:38 14.50358 121.00608 81 ft 2 kts 59°
2026-05-06 07:38 14.50351 121.00595 81 ft 1 kts 60°
2026-05-06 07:39 14.50349 121.00593 81 ft 0 kts 60°
2026-05-06 07:41 14.50350 121.00593 81 ft 0 kts 60°
2026-05-06 07:41 14.50352 121.00597 81 ft 1 kts 61°
2026-05-06 07:41 14.50357 121.00606 81 ft 1 kts 61°
2026-05-06 07:41 14.50364 121.00620 81 ft 2 kts 61°
2026-05-06 07:42 14.50375 121.00640 81 ft 3 kts 62°
2026-05-06 07:42 14.50382 121.00667 81 ft 3 kts 89°
2026-05-06 07:42 14.50358 121.00697 81 ft 4 kts 151°
2026-05-06 07:42 14.50337 121.00698 81 ft 4 kts 191°
2026-05-06 07:43 14.50312 121.00677 81 ft 5 kts 239°
2026-05-06 07:43 14.50294 121.00642 81 ft 5 kts 242°
2026-05-06 07:43 14.50272 121.00602 81 ft 6 kts 240°
2026-05-06 07:43 14.50246 121.00556 81 ft 7 kts 239°
2026-05-06 07:44 14.50218 121.00507 81 ft 8 kts 239°
2026-05-06 07:44 14.50177 121.00435 81 ft 9 kts 241°
2026-05-06 07:44 14.50156 121.00395 81 ft 9 kts 241°
2026-05-06 07:44 14.50121 121.00333 81 ft 10 kts 240°
2026-05-06 07:45 14.50085 121.00267 81 ft 10 kts 240°
2026-05-06 07:45 14.50045 121.00197 81 ft 11 kts 239°
2026-05-06 07:45 14.50005 121.00124 81 ft 11 kts 242°
2026-05-06 07:45 14.49965 121.00050 81 ft 12 kts 240°
2026-05-06 07:46 14.49920 120.99975 81 ft 12 kts 226°
2026-05-06 07:46 14.49837 120.99986 82 ft 9 kts 152°
2026-05-06 07:46 14.49806 121.00021 82 ft 9 kts 111°
2026-05-06 07:46 14.49826 121.00088 82 ft 10 kts 64°
2026-05-06 07:47 14.49840 121.00115 82 ft 0 kts 60°
2026-05-06 07:47 14.49934 121.00283 82 ft 65 kts 61°
2026-05-06 07:48 14.50279 121.00902 82 ft 131 kts 60°
2026-05-06 07:48 14.50828 121.01884 107 ft 181 kts 64°
2026-05-06 07:48 14.51458 121.03034 645 ft 185 kts 63°
2026-05-06 07:48 14.52084 121.04148 1419 ft 182 kts 62°
2026-05-06 07:49 14.52870 121.05595 2374 ft 166 kts 63°
2026-05-06 07:49 14.53221 121.06283 2714 ft 161 kts 64°
2026-05-06 07:49 14.53703 121.07296 3136 ft 158 kts 66°
2026-05-06 07:49 14.54157 121.08327 3515 ft 159 kts 67°
2026-05-06 07:50 14.54726 121.09330 3773 ft 169 kts 41°
2026-05-06 07:50 14.55882 121.09673 3991 ft 186 kts 352°
2026-05-06 07:50 14.57612 121.09082 4350 ft 205 kts 344°
2026-05-06 07:50 14.58553 121.08808 4530 ft 214 kts 348°
2026-05-06 07:51 14.60053 121.08491 4804 ft 228 kts 352°
2026-05-06 07:51 14.61691 121.08250 5013 ft 248 kts 354°
2026-05-06 07:51 14.63480 121.08054 5344 ft 265 kts 356°
2026-05-06 07:51 14.65376 121.07886 5820 ft 276 kts 356°
2026-05-06 07:52 14.67296 121.07735 6505 ft 279 kts 357°
2026-05-06 07:52 14.69212 121.07594 7198 ft 280 kts 357°
2026-05-06 07:52 14.71168 121.07456 7878 ft 282 kts 358°
2026-05-06 07:52 14.73144 121.07322 8539 ft 285 kts 358°
2026-05-06 07:53 14.75127 121.07190 9190 ft 287 kts 358°
2026-05-06 07:53 14.77136 121.07058 9830 ft 290 kts 358°
2026-05-06 07:53 14.79162 121.06926 10398 ft 293 kts 358°
2026-05-06 07:53 14.81235 121.06791 10681 ft 308 kts 358°
2026-05-06 07:54 14.83402 121.06651 11115 ft 316 kts 358°
2026-05-06 07:54 14.85626 121.06506 11676 ft 319 kts 358°
2026-05-06 07:54 14.87846 121.06361 12197 ft 322 kts 358°
2026-05-06 07:54 14.90093 121.06213 12723 ft 325 kts 358°
2026-05-06 07:55 14.93125 121.06016 13423 ft 329 kts 357°
2026-05-06 07:55 14.94668 121.05914 13755 ft 331 kts 357°
2026-05-06 07:55 14.96956 121.05766 14241 ft 334 kts 357°
2026-05-06 07:55 14.99305 121.05615 14727 ft 337 kts 357°
2026-05-06 07:56 15.02435 121.05409 15320 ft 342 kts 357°
2026-05-06 07:56 15.04050 121.05303 15618 ft 344 kts 357°
2026-05-06 07:56 15.06423 121.05148 16052 ft 347 kts 357°
2026-05-06 07:56 15.08868 121.04988 16488 ft 350 kts 357°
2026-05-06 07:57 15.11311 121.04829 16914 ft 353 kts 357°
2026-05-06 07:57 15.13773 121.04668 17324 ft 355 kts 357°
2026-05-06 07:57 15.16257 121.04506 17749 ft 358 kts 357°
2026-05-06 07:57 15.18757 121.04343 18176 ft 360 kts 357°
2026-05-06 07:58 15.21276 121.04179 18607 ft 362 kts 357°
2026-05-06 07:58 15.23767 121.04016 19015 ft 364 kts 356°
2026-05-06 07:58 15.26312 121.03850 19415 ft 366 kts 356°
2026-05-06 07:58 15.28868 121.03683 19823 ft 368 kts 356°
2026-05-06 07:59 15.31419 121.03517 20228 ft 369 kts 356°
2026-05-06 07:59 15.34875 121.03291 20746 ft 372 kts 356°
2026-05-06 07:59 15.36593 121.03179 20991 ft 374 kts 356°
2026-05-06 07:59 15.39208 121.03008 21349 ft 376 kts 357°
2026-05-06 08:00 15.41822 121.02837 21698 ft 379 kts 356°
2026-05-06 08:00 15.45384 121.02593 22184 ft 382 kts 354°
2026-05-06 08:00 15.47119 121.02323 22438 ft 383 kts 348°
2026-05-06 08:00 15.49697 121.01553 22840 ft 384 kts 339°
2026-05-06 08:01 15.52923 120.99997 23362 ft 385 kts 333°
2026-05-06 08:01 15.55303 120.98727 23721 ft 386 kts 332°
2026-05-06 08:01 15.56912 120.97860 23947 ft 388 kts 332°
2026-05-06 08:01 15.60112 120.96139 24396 ft 390 kts 332°
2026-05-06 08:02 15.61707 120.95285 24618 ft 391 kts 332°
2026-05-06 08:02 15.64160 120.93975 24957 ft 393 kts 332°
2026-05-06 08:02 15.67383 120.92256 25379 ft 395 kts 332°
2026-05-06 08:02 15.69035 120.91375 25587 ft 397 kts 332°
2026-05-06 08:03 15.71516 120.90054 25901 ft 399 kts 332°
2026-05-06 08:03 15.73963 120.88749 26204 ft 401 kts 332°
2026-05-06 08:03 15.76465 120.87416 26519 ft 402 kts 332°
2026-05-06 08:03 15.78952 120.86090 26821 ft 404 kts 332°
2026-05-06 08:04 15.81462 120.84753 27120 ft 406 kts 332°
2026-05-06 08:04 15.83987 120.83407 27421 ft 407 kts 332°
2026-05-06 08:04 15.84843 120.82950 27524 ft 408 kts 332°
2026-05-06 08:05 15.94408 120.77846 28661 ft 413 kts 332°
2026-05-06 08:05 15.96952 120.76489 28956 ft 415 kts 332°
2026-05-06 08:05 15.99522 120.75118 29249 ft 416 kts 332°
2026-05-06 08:06 16.02127 120.73727 29541 ft 418 kts 331°
2026-05-06 08:06 16.04710 120.72346 29815 ft 420 kts 332°
2026-05-06 08:06 16.07301 120.70961 30085 ft 422 kts 331°
2026-05-06 08:06 16.09949 120.69546 30381 ft 423 kts 332°
2026-05-06 08:07 16.12571 120.68143 30674 ft 425 kts 332°
2026-05-06 08:07 16.15193 120.66741 30940 ft 427 kts 332°
2026-05-06 08:07 16.17845 120.65322 31206 ft 428 kts 332°
2026-05-06 08:07 16.20499 120.63902 31474 ft 430 kts 331°
2026-05-06 08:08 16.23151 120.62483 31733 ft 432 kts 331°
2026-05-06 08:08 16.25858 120.61032 31994 ft 434 kts 331°
2026-05-06 08:08 16.28522 120.59605 32259 ft 435 kts 332°
2026-05-06 08:08 16.31251 120.58142 32520 ft 437 kts 332°
2026-05-06 08:09 16.34175 120.56575 32803 ft 439 kts 331°
2026-05-06 08:09 16.36896 120.55116 33085 ft 440 kts 331°
2026-05-06 08:09 16.39638 120.53646 33349 ft 441 kts 332°
2026-05-06 08:09 16.42368 120.52181 33613 ft 443 kts 332°
2026-05-06 08:10 16.45100 120.50715 33975 ft 441 kts 332°
2026-05-06 08:10 16.47831 120.49249 34355 ft 440 kts 332°
2026-05-06 08:10 16.50551 120.47789 34674 ft 440 kts 332°
2026-05-06 08:10 16.53252 120.46339 34918 ft 441 kts 331°
2026-05-06 08:11 16.56003 120.44859 35148 ft 442 kts 332°
2026-05-06 08:11 16.58746 120.43385 35376 ft 443 kts 332°
2026-05-06 08:11 16.61466 120.41921 35603 ft 444 kts 332°
2026-05-06 08:11 16.64230 120.40434 35817 ft 445 kts 332°
2026-05-06 08:12 16.66968 120.38871 35933 ft 446 kts 329°
2026-05-06 08:12 16.69589 120.37179 35936 ft 446 kts 326°
2026-05-06 08:12 16.74587 120.33316 35918 ft 445 kts 319°
2026-05-06 08:13 16.79209 120.28834 35908 ft 444 kts 313°
2026-05-06 08:13 16.83504 120.24138 35879 ft 443 kts 313°
2026-05-06 08:14 16.87778 120.19438 35871 ft 444 kts 313°
2026-05-06 08:14 16.92066 120.14727 35888 ft 443 kts 313°
2026-05-06 08:15 16.96341 120.10028 35892 ft 442 kts 313°
2026-05-06 08:15 17.00591 120.05358 35887 ft 442 kts 313°
2026-05-06 08:16 17.04877 120.00646 35882 ft 443 kts 313°
2026-05-06 08:16 17.09136 119.95961 35879 ft 442 kts 313°
2026-05-06 08:17 17.13399 119.91264 35882 ft 443 kts 313°
2026-05-06 08:17 17.17637 119.86594 35882 ft 442 kts 313°
2026-05-06 08:18 17.21857 119.81938 35880 ft 441 kts 313°
2026-05-06 08:18 17.26118 119.77235 35881 ft 440 kts 313°
2026-05-06 08:19 17.30335 119.72578 35880 ft 439 kts 313°
2026-05-06 08:19 17.33888 119.68649 35879 ft 439 kts 313°